Location: ?
(35.4554°N, 139.3092°E)
Time: 22:12:44
(UTC+00:00)

SJ 16-02 - Pass Details

Date: 21 April 2021
Orbit: 605 x 617 km, 75.0° (Epoch: 10 May)

Event Time Altitude Azimuth Distance (km) Brightness Sun altitude
Exits shadow 16:34:57 12° 352° (N) 1,830 4.2 -35.4°
Drops below altitude 10° 16:35:24 10° 355° (N) 1,981 4.4 -35.3°
Sets 16:37:51 0° 6° (N) 2,892 5.6 -35.0°
